Regional Weather Roundup
Issued by NWS Newport/Morehead, NC

Current Version | Previous Version | Graphics & Text | Print | Product List | Glossary On
Versions: 1 2 3 4 5 6 7 8 9 10 11 12 13 14 15 16 17 18 19 20 21 22 23 24 25 26 27 28 29 30 31 32 33 34 35 36 37 38 39 40 41 42 43 44 45 46 47 48 49 50
000 ASUS42 KMHX 281813 RWRMHX WEATHER ROUNDUP FOR EASTERN NORTH CAROLINA NATIONAL WEATHER SERVICE NEWPORT/MOREHEAD CITY NC 200 PM EDT SUN AUG 28 2016 NOTE: "FAIR" INDICATES FEW OR NO CLOUDS BELOW 12,000 FEET WITH NO SIGNIFICANT WEATHER AND/OR OBSTRUCTIONS TO VISIBILITY NCZ015>017-031-032-045>047-102-103-281900- NORTH COAST CITY SKY/WX TMP DP RH WIND PRES REMARKS EDENTON PTSUNNY 86 73 65 NE7 30.15F ELIZABETH CITY PTSUNNY 86 75 69 NE20 30.16F KITTY HAWK RAIN 82 81 96 NE8 30.14S MANTEO CLOUDY 83 75 78 E13G21 30.15S $$ NCZ045>047-081-094-103-104-281900- CENTRAL COAST CITY SKY/WX TMP DP RH WIND PRES REMARKS FRISCO CLOUDY 79 77 94 VRB3 30.13F $$ NCZ095-097-098-100-101-281900- SOUTHERN COAST CITY SKY/WX TMP DP RH WIND PRES REMARKS BEAUFORT CLOUDY 83 77 82 NE7 30.12F CEDAR ISLAND NOT AVBL JACKSONVILLE CLOUDY 86 74 67 NE8 30.11F PINEY ISLAND NOT AVBL WILMINGTON CLOUDY 85 73 67 N10 30.12F $$ NCZ011>013-027>030-043-044-078>080-089-090>093-098-281900- COASTAL PLAIN CITY SKY/WX TMP DP RH WIND PRES REMARKS AHOSKIE SUNNY 87 70 57 NE8 30.16F CLINTON CLOUDY 86 73 64 NE6 30.15F ELIZABETHTOWN CLOUDY 86 71 59 N6 30.14F GOLDSBORO MOSUNNY 90 71 52 E10 30.13F GREENVILLE PTSUNNY 90 73 58 NE13 30.14F HAVELOCK TSTM 80 74 81 N13 30.13S KENANSVILLE PTSUNNY 86 72 62 NE3 30.14F KINSTON CLOUDY 88 72 58 NE8 30.14F NEW BERN TSTM 77 74 90 NE6 30.15R FOG RICHLANDS CLOUDY 85 74 69 VRB3 30.13F ROCKY MOUNT CLOUDY 90 71 53 N13 30.16F WASHINGTON CLOUDY 82 75 78 NE7 30.14S WHITEVILLE CLOUDY 84 72 65 NE6 30.13S $$ AMZ130-135-150-152-154-156-158-170-250-252-270-ANZ085-086-088-633-658-670-281900- MARINE OBSERVATIONS STATION/POSITION TIME TEMP WIND PRES WAVE SWELL AIR SEA DIR/SP/G HT/PER HT/PER (UTC) (F) (DEG/KT/KT) (MB) (FT/S) (FT/S) CHESAPEAKE LIGHT NOT AVBL 64 E VA BEACH 1750 81 81 40/ 16/ 17 1020.7 4/ 6 2/ 9 DUCK 1700 80 77 40/ 15/ 16 1020.9 2 E DUCK 1711 77 N/A 4/ 6 OREGON INLET 1700 82 78 30/ 7/ 9 1020.7 13E OREGON INLT 1800 80 N/A 3/ 6 3/ 6 HATTERAS CG 1700 78 83 310/ 7/ 8 1020.1 DIAMOND BUOY 1750 84 85 70/ 10/ 12 1019.9 3/ 8 2/ 8 CAPE LOOKOUT 1800 83 50/ 8/ 9 1019.4 BEAUFORT LAB 1700 81 82 360/ 8/ 11 1019.6 30 SE NEW RVR IN 1708 83 84 50/ 10/ 16 1019.8 30 SE NEW RVR IN 1725 84 N/A 3/ 8 27 SE WRIGHTSVLE 1708 82 83 30/ 14/ 17 1020.0 5 SE WRIGHTSVLE 1708 82 83 30/ 12/ 17 1021.1 225 S CAPE HAT 1750 83 85 60/ 10/ 10 1017.9 3/15 3/15 41 SE CHARLESTON 1750 83 85 70/ 10/ 12 1018.3 3/ 9 3/ 9 $$

USA.gov is the U.S. government's official web portal to all federal, state and local government web resources and services.